Theta_e
293 294 294 294 294 294 294 294 294 293 294 294 293 293 295 296 290 289 296 298 297 298 301 304 305 308 312 311 316 316 321 324 325 326 325 325 325 325 324 326 327 328 327 326 326 326 325 325 325 326 326 327 328 328 327 326 324 323 323 324 323 322 321 321 319 318 318 318 318 318 316 315 314 313 313 313 312 311 311 310 310 309 310 310 310 310 310
293 294 294 295 293 294 294 294 294 295 294 294 295 295 296 296 296 297 298 299 299 301 302 304 308 315 314 316 318 320 321 323 324 324 325 324 324 324 325 325 326 327 327 326 326 326 325 325 324 324 325 325 324 324 324 323 323 322 323 323 323 321 320 319 319 319 318 317 316 315 315 314 312 312 311 311 310 310 310 310 310 309 309 310 309 309 309
292 294 295 295 294 293 293 294 295 295 295 295 295 296 296 297 297 298 298 298 298 303 305 304 313 317 315 317 315 316 319 322 323 323 324 324 323 324 324 325 326 326 326 326 326 326 326 325 325 325 325 325 323 322 323 323 324 323 325 325 323 321 319 319 318 316 314 313 314 313 313 311 310 309 310 309 309 308 309 308 308 308 308 307 308 308 308
290 294 294 295 295 294 293 293 293 294 294 293 295 293 297 296 295 297 297 295 296 302 305 305 306 307 310 309 315 317 319 321 323 323 324 324 324 323 324 325 326 326 326 325 324 325 325 325 324 324 324 324 322 322 322 322 323 324 324 323 322 321 318 316 315 313 313 312 312 312 311 310 309 309 309 309 307 306 306 306 306 306 305 305 306 307 308
288 294 294 294 295 293 290 290 294 295 296 296 297 297 298 299 300 295 291 295 300 302 304 303 303 305 309 312 313 318 320 322 323 323 324 324 325 324 325 324 324 326 326 325 324 325 325 325 324 326 326 325 324 323 322 322 322 322 321 320 320 319 317 316 314 312 311 311 311 310 310 309 309 308 307 306 305 305 305 305 304 300 299 303 305 307 308
288 294 293 295 291 283 285 297 300 298 296 296 295 295 297 300 301 298 300 300 303 303 303 302 304 306 307 315 319 322 323 322 323 323 325 325 326 326 326 325 325 326 326 326 325 326 325 326 326 327 327 326 326 325 323 322 321 320 317 315 316 316 315 315 313 311 310 310 309 308 308 308 308 307 306 303 304 305 303 301 300 299 300 303 305 307 307
288 292 291 287 282 285 302 302 302 300 300 298 297 298 299 299 301 301 300 300 302 303 304 306 308 310 315 317 316 321 323 324 324 324 324 326 326 326 326 325 325 326 327 327 326 325 325 325 325 325 327 328 326 326 325 323 321 319 316 315 314 313 313 313 313 310 310 310 308 308 307 307 306 306 305 304 303 303 302 300 300 301 303 305 306 307 307
291 289 287 281 284 298 300 303 302 305 301 300 299 297 299 301 301 301 300 301 302 304 305 307 310 314 315 316 319 322 325 325 326 325 325 326 327 326 326 326 326 327 327 326 326 325 325 326 325 324 324 326 326 324 325 324 322 320 317 316 315 314 313 313 312 311 310 309 308 308 307 307 306 305 304 303 304 305 304 303 303 303 305 306 307 307 308
286 289 288 286 297 296 300 299 300 298 297 298 296 290 295 302 302 301 300 301 303 304 305 307 315 318 315 313 315 323 324 325 326 326 327 328 328 328 329 328 327 329 329 328 328 327 326 325 324 324 325 324 323 322 321 321 319 318 318 317 316 314 312 312 312 311 311 310 309 308 306 305 305 305 305 305 306 306 305 304 303 303 305 306 306 306 307
292 289 288 287 287 284 291 301 304 305 307 307 304 299 295 303 303 304 302 302 303 304 305 312 315 319 309 306 308 321 324 325 326 327 328 330 329 328 328 328 328 329 330 329 328 327 326 325 325 326 326 324 323 320 318 317 315 316 317 316 315 312 309 309 309 310 310 309 307 306 306 305 305 306 307 307 307 306 304 303 303 303 305 304 304 305 306
291 289 287 286 284 288 298 301 304 305 307 307 306 297 291 300 303 305 305 303 304 305 308 314 316 309 303 303 309 325 324 325 327 327 328 329 329 329 329 328 327 328 329 329 328 328 327 325 326 327 326 325 322 319 317 315 315 315 315 318 317 312 309 309 308 308 308 308 307 306 305 305 305 304 303 304 305 305 304 304 303 303 303 303 303 304 305
290 289 288 287 290 289 298 304 306 306 309 310 301 287 288 302 304 305 305 304 305 306 312 315 313 307 301 303 313 323 327 326 328 328 328 328 329 328 329 330 330 329 329 328 327 327 326 326 328 326 324 322 320 317 315 315 314 315 317 319 319 316 313 311 310 310 309 307 306 304 303 302 301 302 303 303 303 303 302 302 302 302 301 302 302 302 304
290 287 289 292 292 297 305 305 307 305 307 305 290 285 293 309 312 312 310 308 308 311 313 313 308 312 316 321 323 320 326 327 328 330 331 330 329 329 328 328 321 328 327 327 326 326 326 326 326 325 323 320 317 316 315 315 314 318 321 319 317 317 314 312 311 310 308 308 306 304 302 301 301 302 302 301 302 303 301 301 301 300 301 302 302 301 302
290 291 289 290 293 300 305 309 306 305 301 289 289 304 310 314 313 314 312 312 313 315 314 314 314 319 321 323 323 322 326 327 327 327 329 330 330 331 328 326 326 328 327 328 327 327 328 328 326 325 323 320 319 318 317 316 317 318 316 313 313 313 312 310 309 308 307 306 306 304 303 302 301 301 302 302 302 302 300 300 300 300 301 301 301 301 302
292 290 289 287 285 296 309 309 304 303 295 299 309 313 316 315 315 315 315 313 314 315 315 317 321 320 322 323 324 323 326 326 326 326 327 328 328 329 329 328 328 327 327 326 326 326 326 326 325 324 322 320 320 318 317 316 317 317 315 313 311 311 309 307 306 306 305 305 304 303 303 303 302 301 302 302 302 301 300 300 300 300 300 300 300 300 300
288 289 286 287 296 305 309 309 298 307 312 314 316 316 313 317 316 316 316 316 316 315 317 320 320 321 321 322 324 325 325 326 326 327 328 329 329 330 331 329 328 328 327 327 326 327 327 325 325 323 322 319 317 316 317 318 316 314 313 313 312 311 309 307 305 304 304 304 304 303 303 303 303 301 302 302 301 300 300 299 299 298 297 298 298 297 297
291 291 294 303 307 308 310 311 310 312 315 317 317 319 317 316 316 320 316 316 318 320 322 321 320 319 321 322 324 323 323 325 325 325 327 328 329 328 328 327 328 327 327 326 325 325 325 324 325 323 322 318 315 315 318 317 314 313 313 313 312 311 309 307 305 305 304 303 303 302 303 303 303 302 301 301 299 300 300 299 298 296 296 296 295 295 295
302 302 302 305 307 309 312 312 312 312 314 317 319 318 315 317 318 318 317 317 317 318 319 318 319 321 322 322 323 325 324 324 325 326 327 328 330 329 328 328 327 327 327 326 325 324 323 323 324 322 321 320 316 317 318 318 316 313 314 313 311 310 308 307 306 305 303 303 303 303 302 303 303 302 301 300 300 300 298 296 295 294 294 295 294 295 295
294 292 308 307 309 310 310 311 312 313 314 315 317 320 318 318 319 318 319 319 318 318 318 318 318 318 320 321 322 324 325 325 325 325 325 327 328 327 326 327 325 326 326 324 324 323 321 322 323 322 322 321 320 319 316 316 314 313 313 312 310 309 307 306 306 305 304 305 304 302 302 302 302 302 301 301 301 299 296 295 295 295 295 294 295 295 296
294 296 306 310 310 310 310 311 312 312 314 314 315 318 319 319 320 320 320 321 319 320 319 320 318 318 320 321 321 322 323 324 324 324 325 325 326 327 328 328 326 327 325 324 322 320 319 321 321 321 320 320 319 317 316 315 313 312 311 310 310 308 306 305 304 304 304 297 301 303 302 303 303 303 302 301 300 299 297 296 296 295 295 295 295 297 298
300 304 307 309 312 311 312 311 313 314 314 315 316 316 318 320 319 319 319 320 319 319 319 321 320 318 319 320 322 321 322 322 323 323 324 324 326 326 326 326 326 325 324 324 323 320 319 321 322 321 320 319 318 317 316 316 314 312 310 307 308 307 306 305 304 304 304 303 304 303 303 303 304 304 302 301 300 300 301 301 299 298 297 297 297 299 300
295 297 304 310 299 298 309 312 315 316 316 316 318 318 318 318 318 319 318 318 319 319 320 321 321 319 319 321 322 320 321 323 324 324 324 324 325 325 326 325 325 325 324 324 321 319 320 322 322 320 319 318 317 316 316 316 315 313 311 309 308 306 305 305 304 303 303 303 304 303 303 302 302 302 295 295 298 301 301 297 295 295 294 299 299 300 300
295 305 310 312 311 312 311 314 314 317 318 319 316 316 317 318 317 318 318 318 318 318 319 321 320 320 320 320 322 321 321 322 323 323 322 322 322 322 323 322 324 324 323 321 320 320 321 322 321 319 319 318 316 315 314 313 314 313 311 308 307 306 304 304 302 303 303 303 303 303 303 303 303 301 301 300 294 294 296 297 296 293 293 294 293 293 300
307 310 311 312 311 309 312 314 316 316 318 317 316 317 318 318 318 319 318 317 318 318 318 318 320 320 320 321 321 320 321 321 322 322 322 322 322 321 322 322 322 321 321 320 320 320 322 322 321 319 316 316 315 313 312 312 312 310 309 307 306 305 304 303 301 303 304 304 303 303 303 304 304 303 302 300 301 293 290 293 294 293 293 293 293 293 293
307 311 312 313 314 316 316 314 315 316 316 316 315 316 318 317 317 318 318 318 318 318 318 318 319 320 320 320 321 320 319 320 320 320 320 318 318 319 320 320 321 320 320 320 321 321 321 321 320 315 313 313 314 312 312 312 311 309 308 307 306 304 304 303 301 301 302 302 302 303 303 303 304 304 302 301 301 300 297 291 291 292 292 292 292 293 293
312 312 313 314 315 315 315 314 314 315 315 316 316 316 316 313 316 317 317 318 317 319 319 319 319 320 321 321 320 321 320 319 315 316 319 318 318 319 319 319 320 320 320 320 321 321 320 319 317 315 313 312 313 313 313 312 312 310 308 307 306 305 304 302 302 303 303 303 302 303 304 305 305 304 304 304 304 303 299 297 297 291 291 290 290 291 291
312 314 313 312 311 312 313 312 311 315 315 317 316 315 316 317 314 317 317 318 318 318 319 319 319 319 320 319 318 319 319 317 317 319 320 318 318 319 320 320 320 319 318 319 319 315 313 318 316 315 313 311 312 312 313 312 311 310 308 307 306 299 293 297 303 303 303 303 303 304 306 306 305 304 305 304 304 303 301 299 299 298 298 297 292 290 295
313 312 312 310 307 309 310 311 313 315 314 315 315 314 313 315 316 315 315 316 317 318 318 319 321 320 319 319 319 317 317 318 318 318 318 318 319 320 320 320 320 320 319 319 319 318 318 318 317 315 312 312 312 312 312 312 311 310 308 306 305 303 302 301 303 303 304 304 305 306 306 306 307 305 304 303 302 302 301 302 300 300 299 300 300 292 290
312 312 312 311 312 314 313 312 312 312 312 313 313 313 313 312 312 312 313 314 315 317 316 318 318 319 319 319 319 318 318 318 318 317 319 319 318 319 319 320 320 319 318 317 317 315 315 315 314 313 313 313 313 313 313 313 312 311 309 307 305 303 302 303 303 303 304 305 305 305 299 302 304 305 304 304 302 304 302 302 300 301 300 301 301 300 293
310 310 311 310 312 313 312 311 310 310 310 311 311 311 312 311 310 310 311 313 314 314 315 317 318 318 319 318 318 318 318 318 318 318 318 319 319 319 319 319 318 317 317 316 315 314 314 314 315 314 314 315 314 313 313 313 313 313 311 309 307 304 303 303 303 303 304 304 304 297 302 304 305 305 303 304 304 303 303 302 301 300 299 298 295 297 296
307 308 308 309 310 310 310 309 310 310 310 310 310 309 309 309 309 309 310 312 313 314 315 315 316 317 317 317 317 318 318 318 318 318 318 318 319 319 319 318 317 314 315 316 315 316 316 316 317 316 315 315 314 314 313 313 312 312 311 309 307 296 293 294 296 304 304 303 302 303 302 303 304 303 301 303 303 302 302 301 299 299 298 297 298 296 296
303 303 307 309 309 308 309 308 308 308 308 309 308 306 307 306 305 306 307 309 312 313 314 315 315 315 316 316 317 317 318 318 317 318 318 318 318 318 319 319 319 311 317 316 315 315 316 316 316 315 314 315 315 314 314 313 313 312 311 303 306 303 296 292 302 301 301 301 301 301 301 303 304 304 302 302 302 303 303 302 300 299 299 298 298 298 298
305 304 304 306 306 307 307 309 307 307 307 307 307 308 308 308 308 307 307 308 310 313 314 314 314 315 316 317 317 317 317 317 317 317 317 317 317 317 319 319 320 319 319 318 317 317 317 316 316 315 314 314 314 314 314 314 313 312 311 310 308 305 296 295 297 302 300 300 302 303 304 302 303 304 303 302 303 301 302 302 301 299 298 298 298 299 299
308 306 307 307 307 306 305 306 307 307 308 309 308 308 308 308 308 308 309 310 311 312 313 313 314 314 315 316 316 316 316 315 315 315 315 316 316 317 317 317 318 318 318 317 317 317 317 317 315 313 313 313 313 313 314 314 313 312 312 311 309 304 302 300 299 301 300 301 302 303 302 303 304 303 302 302 303 302 301 302 298 297 297 297 298 298 296
310 310 310 310 311 310 310 308 308 307 306 306 306 307 308 309 309 309 308 312 312 312 312 313 313 314 315 315 315 315 315 315 314 314 313 313 315 315 316 315 316 316 315 315 316 316 316 316 314 313 313 313 313 312 313 313 313 312 312 310 306 303 302 300 301 302 302 302 304 305 304 303 303 298 300 302 302 301 300 299 299 298 298 297 298 300 296
310 309 309 309 310 310 310 309 309 309 308 307 307 307 307 309 311 311 312 311 311 312 312 313 313 314 313 313 312 312 312 311 309 311 313 313 314 315 314 314 314 313 312 312 313 315 315 315 300 299 312 311 311 311 312 312 312 311 311 309 305 304 302 301 302 303 303 304 302 302 302 299 299 300 302 302 303 302 302 301 300 300 300 300 299 299 299
310 309 309 310 309 309 310 309 310 310 310 309 309 308 308 310 311 311 311 311 311 312 312 313 311 309 308 309 309 310 311 311 311 312 312 312 314 314 314 314 313 313 312 312 313 314 313 312 295 292 305 309 310 312 310 295 311 310 308 309 308 306 303 303 303 303 303 302 301 302 301 299 302 303 300 302 303 302 301 302 301 300 300 300 299 298 298
309 309 311 310 310 311 311 310 310 311 311 310 310 309 310 311 311 311 311 311 311 311 311 310 309 309 309 310 309 308 307 308 310 310 311 312 313 313 313 313 312 313 312 314 314 314 314 302 290 301 311 310 310 309 303 292 299 308 309 308 307 305 303 303 299 299 300 302 300 304 303 302 302 302 302 302 303 302 302 301 300 299 299 299 300 299 298
308 309 310 310 310 310 310 309 310 311 310 309 309 310 312 312 311 312 310 310 310 309 309 308 309 308 308 308 307 308 308 307 308 310 310 310 311 312 311 312 313 313 313 314 314 313 307 301 308 310 310 310 309 309 298 289 293 307 306 306 305 305 304 301 299 298 298 301 300 300 302 301 301 303 302 302 303 303 299 300 300 298 300 300 299 299 299
307 307 308 308 308 308 308 308 308 309 310 310 309 310 311 310 311 311 309 309 309 310 309 310 309 307 307 307 308 308 308 308 309 309 309 309 309 309 309 310 311 312 308 299 310 311 301 293 303 312 311 311 310 309 302 295 295 302 304 304 304 303 302 301 302 301 300 300 298 295 299 300 301 302 302 301 302 301 302 300 299 299 298 299 300 300 299
306 307 307 307 307 307 307 307 308 310 310 310 311 311 312 312 311 310 309 308 308 309 309 309 308 307 307 308 308 308 308 308 308 308 308 309 308 308 307 308 309 310 309 309 310 305 297 299 307 311 311 310 310 303 304 293 300 305 309 307 307 303 302 301 301 301 301 300 299 299 299 300 298 299 298 300 300 301 301 301 300 298 298 299 300 300 300
306 307 306 306 306 306 306 307 308 308 309 311 310 312 312 312 310 309 309 309 308 309 308 307 300 308 308 308 308 308 308 308 308 308 308 307 307 307 306 307 308 308 297 298 298 300 303 304 305 302 310 310 308 295 293 300 304 306 306 306 305 303 304 303 302 301 301 301 301 300 299 299 299 299 299 300 300 300 299 299 298 298 299 299 299 301 300
306 306 305 305 305 305 305 305 305 306 307 308 310 310 311 311 311 310 308 308 307 307 307 308 306 304 307 308 307 307 308 308 308 308 308 308 308 308 308 308 309 305 291 302 305 307 305 307 308 309 303 305 303 290 291 303 305 306 306 306 303 305 305 304 304 303 303 303 302 302 302 302 302 302 300 300 300 299 299 299 298 298 298 300 300 300 300
307 306 306 305 305 305 305 305 305 305 304 305 308 310 310 310 309 309 307 306 306 305 306 306 307 307 306 307 307 306 307 308 308 308 307 308 308 309 309 309 308 299 291 302 307 307 307 308 309 300 286 288 288 290 300 306 306 306 307 305 304 305 304 305 303 304 304 302 302 303 303 300 302 302 301 299 298 299 299 299 299 299 299 300 301 301 300
307 306 306 306 306 305 304 304 304 304 305 305 306 306 308 309 308 308 307 306 305 305 305 306 307 307 307 307 307 307 307 307 307 308 307 306 307 307 308 299 305 303 300 295 307 306 307 308 298 289 290 287 288 290 304 306 306 306 307 307 306 305 305 305 304 304 303 303 303 303 303 302 303 301 301 300 297 299 299 299 299 299 299 299 300 300 300
307 307 307 301 306 307 308 308 307 307 306 306 305 305 305 306 308 308 307 307 307 307 307 307 308 307 307 307 307 308 308 308 308 309 309 309 308 307 306 299 304 298 293 291 306 307 305 286 286 287 287 287 289 299 306 305 305 307 307 306 306 303 305 305 304 304 304 303 303 303 304 303 302 302 302 302 301 300 299 297 298 301 301 300 301 301 301
306 306 306 306 306 307 307 308 307 307 306 305 304 304 304 307 307 308 308 308 307 307 307 308 307 308 309 309 307 306 306 306 308 308 309 309 306 304 297 293 290 289 294 304 305 307 303 298 290 286 287 287 289 305 307 307 307 307 306 306 305 306 305 306 305 305 304 304 302 301 298 301 302 303 300 300 301 299 299 299 300 300 300 300 300 299 299
303 303 304 304 305 306 307 307 306 306 305 304 305 304 306 307 307 308 308 308 307 306 306 308 307 308 309 309 309 309 308 308 305 307 309 309 310 309 308 308 302 293 294 293 293 291 287 288 286 286 286 287 296 306 307 307 307 307 307 306 306 306 306 306 306 306 306 303 302 304 303 302 303 303 303 302 301 300 299 299 300 300 300 301 302 302 302
300 299 300 300 301 301 302 302 302 302 302 303 304 306 306 306 306 307 307 307 306 306 305 306 307 307 309 307 308 310 308 308 308 307 309 310 310 310 308 295 286 288 296 305 306 302 289 286 286 287 285 288 303 307 307 307 306 304 307 306 305 306 305 306 305 305 305 304 303 302 302 302 302 302 302 300 299 299 298 299 300 302 300 301 301 300 301
296 297 296 296 297 297 298 298 298 298 299 300 301 303 306 307 304 305 306 306 306 303 306 306 306 308 308 308 309 309 309 310 309 309 309 309 309 309 307 307 304 296 295 307 307 302 287 284 286 287 291 301 305 306 307 308 307 306 307 306 304 305 303 301 298 300 303 302 303 301 302 302 302 299 299 298 298 298 299 299 300 297 293 296 299 301 301
290 291 291 292 294 295 296 296 296 297 298 297 299 300 302 303 302 300 301 301 306 304 305 305 307 307 308 308 308 309 308 308 306 302 308 309 309 303 302 304 305 300 303 303 305 306 303 302 302 296 297 302 305 306 307 306 306 304 301 305 305 305 305 302 302 303 304 304 304 302 302 302 302 301 300 299 299 299 299 301 300 300 301 300 301 301 302
289 290 291 290 291 292 293 293 295 296 296 296 297 297 298 300 302 300 300 292 301 304 304 304 304 305 307 307 306 308 308 307 307 307 303 305 307 308 302 298 306 303 304 306 307 308 307 304 298 294 296 303 306 306 299 298 303 304 304 301 302 304 302 302 302 303 305 303 303 304 302 302 302 301 301 301 301 301 301 301 301 300 300 302 302 302 302
Wind_Speed
5 3 6 8 15 17 17 19 18 20 19 20 21 20 17 14 12 11 10 14 17 16 17 12 11 3 4 1 3 3 5 7 9 11 14 15 16 16 18 19 20 21 21 19 20 20 19 19 19 19 17 12 15 13 15 15 15 15 15 14 14 14 13 15 14 13 12 11 11 12 13 12 12 10 10 9 9 8 8 7 5 6 8 9 9 8 9
6 6 7 7 12 13 15 19 19 20 21 22 21 18 17 18 14 13 9 10 14 14 18 20 5 5 4 3 3 3 6 9 11 12 14 15 15 17 19 19 19 18 19 19 21 20 19 19 19 18 17 16 15 15 16 15 15 13 15 12 14 14 14 14 13 13 12 11 12 12 12 12 12 10 9 9 9 9 8 8 7 7 7 6 8 8 9
6 7 7 9 11 12 14 16 18 19 20 21 21 19 18 18 16 13 15 12 10 12 16 20 4 3 3 1 4 5 7 9 11 13 14 15 16 17 18 19 18 19 19 19 20 20 20 21 19 18 17 17 16 15 15 16 17 14 15 14 13 15 14 13 13 12 11 11 12 13 12 12 12 11 9 9 10 10 7 5 5 4 5 5 6 7 8
5 4 4 7 11 13 14 16 18 19 20 20 19 17 17 17 16 17 15 13 12 9 11 13 16 11 7 7 6 7 7 10 11 13 14 16 17 17 18 18 18 20 21 20 21 22 21 20 19 18 18 18 17 16 16 16 14 14 13 13 13 14 14 14 13 13 12 12 12 12 12 12 11 10 10 9 9 9 9 8 6 5 5 2 5 7 7
2 3 5 7 10 10 11 15 19 22 20 16 14 15 16 16 14 13 13 13 9 11 10 14 15 15 10 8 8 7 8 9 12 14 15 15 17 18 19 20 21 20 21 20 21 21 21 20 20 20 19 17 17 17 15 14 11 13 13 12 12 13 13 14 14 12 12 13 13 12 12 12 12 12 12 11 12 11 10 8 6 6 7 8 7 7 7
2 3 1 8 11 11 13 12 17 17 19 19 19 17 18 16 13 12 10 9 10 13 14 14 12 12 9 6 5 6 8 10 13 14 14 15 16 16 17 19 20 19 16 17 18 20 20 20 19 18 17 17 17 15 13 13 14 12 11 10 10 11 12 13 13 13 13 13 12 12 12 12 12 12 11 10 9 9 9 8 7 8 8 9 9 9 8
2 2 3 7 11 10 3 4 7 18 17 18 20 17 18 19 19 18 16 15 16 16 14 12 11 7 4 1 5 8 11 11 12 15 16 16 16 17 18 19 20 20 19 20 19 20 20 18 17 15 16 17 16 16 17 15 15 14 12 12 11 11 11 12 12 13 14 14 13 12 12 12 12 11 11 9 9 8 8 8 9 9 10 11 9 9 9
3 3 4 7 6 5 3 4 3 0 12 17 17 18 19 19 20 19 18 20 20 19 16 14 7 5 5 6 6 9 10 12 12 15 15 16 16 18 17 19 19 20 19 20 20 19 17 17 17 17 17 14 16 17 17 17 16 15 15 14 13 13 13 13 13 13 14 14 13 12 12 12 12 12 11 11 10 9 9 8 8 9 9 9 10 10 9
4 2 5 3 4 3 5 3 5 8 11 14 14 11 14 16 16 18 19 22 21 18 16 11 2 2 4 8 8 9 11 12 13 13 13 14 15 15 15 17 19 18 18 18 18 19 18 18 17 17 17 16 15 15 15 13 14 14 15 15 15 15 14 14 14 14 14 15 15 14 13 13 12 12 12 12 10 9 9 9 9 9 9 9 9 9 10
2 4 3 4 3 5 5 7 2 3 6 4 13 11 11 13 16 17 19 19 18 17 14 6 2 2 4 9 10 9 12 12 13 11 11 13 14 15 15 16 16 17 16 16 18 18 20 19 19 17 18 16 16 14 13 13 12 13 14 15 13 12 12 12 13 13 13 13 14 14 14 15 14 13 12 10 10 9 10 10 10 9 8 8 8 9 10
4 3 3 2 3 3 3 6 4 1 3 5 6 10 13 12 17 18 18 19 17 15 10 5 4 3 9 9 5 6 11 12 12 12 11 12 14 14 15 17 18 18 17 17 19 19 19 20 19 19 18 18 16 15 15 14 13 13 14 17 17 14 13 12 11 11 11 12 13 14 13 13 12 12 10 9 8 8 8 8 8 8 8 8 8 8 9
4 3 4 2 1 2 5 6 5 4 3 1 8 9 8 10 15 16 17 17 16 12 8 5 6 7 7 8 3 3 7 12 12 11 12 13 15 15 15 16 17 17 17 17 17 18 20 20 20 20 18 16 16 15 14 14 13 14 16 17 16 15 15 15 14 14 12 11 9 9 10 9 10 10 9 8 8 8 7 7 7 7 7 7 8 7 8
3 4 3 1 3 3 5 6 5 3 1 4 7 8 2 6 4 4 8 11 11 8 8 8 8 9 3 4 4 1 7 11 11 10 11 13 15 16 16 16 16 16 17 17 19 19 18 18 18 19 17 16 15 14 14 14 15 16 17 14 14 15 14 14 14 13 9 8 9 9 8 9 9 9 8 8 8 9 8 7 8 8 9 8 8 8 7
4 2 2 0 2 5 3 4 4 4 5 5 3 5 3 4 5 3 1 2 4 5 8 8 8 3 4 3 2 3 8 11 14 12 10 12 13 14 15 17 18 17 17 18 18 18 17 19 19 18 16 16 16 15 15 15 16 14 15 13 11 12 13 13 12 9 8 7 8 8 9 9 10 9 8 9 9 9 7 8 9 9 9 7 8 7 7
4 2 1 2 1 2 6 4 3 1 2 3 5 6 4 4 4 3 2 2 3 6 8 9 5 4 3 3 3 4 7 8 11 13 14 14 14 15 17 18 18 17 17 18 18 18 16 17 17 16 16 16 15 14 15 15 13 13 13 13 12 13 12 12 10 9 10 11 10 9 10 11 12 11 10 10 9 9 9 9 9 9 9 7 7 7 7
4 2 1 1 2 3 3 4 2 2 5 6 6 7 4 7 6 5 4 4 1 4 6 7 5 4 3 3 2 4 7 9 9 10 11 12 12 13 14 16 17 18 16 17 16 16 16 16 16 14 16 15 14 14 15 13 12 13 13 13 13 14 13 13 12 11 12 12 11 10 11 11 11 11 11 10 10 9 9 9 9 9 8 8 8 8 8
2 3 2 4 5 3 3 4 3 5 5 4 5 6 7 7 8 6 6 7 5 2 0 4 5 4 4 1 3 5 5 7 11 13 13 12 12 14 15 16 16 15 16 18 17 16 15 17 16 15 15 15 15 16 13 13 13 14 13 14 14 13 14 13 13 12 12 11 11 11 12 13 12 11 12 11 10 10 10 10 10 10 9 9 9 9 9
3 6 5 5 6 3 2 1 3 5 4 4 4 7 7 8 8 8 7 7 6 4 3 2 3 5 3 4 4 3 6 6 6 6 10 13 13 14 14 15 17 16 15 16 17 18 17 17 16 14 14 14 16 15 13 15 15 14 15 14 14 14 13 14 14 13 13 12 12 12 13 11 11 11 11 12 11 10 10 10 10 10 11 10 10 10 10
2 1 5 3 2 1 1 2 2 4 4 3 4 4 7 7 7 9 8 7 7 6 4 4 3 1 1 3 3 3 6 8 9 8 8 10 12 15 16 15 16 15 15 16 17 17 17 16 15 13 14 13 15 14 14 14 13 13 14 14 13 13 13 12 12 13 14 12 11 10 10 10 10 11 11 11 11 11 10 10 11 11 11 11 10 10 10
4 2 1 0 2 1 1 2 2 3 1 2 3 3 3 6 6 7 7 6 6 4 5 6 4 2 1 2 4 4 4 6 8 9 8 8 11 13 14 15 16 15 15 16 16 17 16 16 14 13 12 12 13 13 14 14 13 12 12 12 13 13 14 12 10 11 12 13 14 11 12 11 11 12 12 12 12 12 12 11 11 11 11 11 11 11 11
4 5 6 4 2 3 5 4 1 1 1 2 3 2 1 4 7 7 8 8 8 7 6 4 3 2 1 1 2 4 5 5 7 8 8 9 10 12 13 14 15 14 13 15 17 16 16 15 15 13 13 13 14 14 14 14 14 14 12 13 12 14 13 12 10 9 10 12 10 10 11 11 10 11 11 12 11 10 11 11 11 12 12 11 11 11 10
3 5 4 5 3 4 4 4 4 3 3 2 2 4 4 4 6 7 8 8 8 8 7 6 5 5 4 3 2 4 4 5 6 7 8 10 12 11 11 11 14 12 13 12 16 16 15 15 15 13 14 13 14 14 14 15 15 14 14 13 13 13 12 11 11 11 9 10 10 10 11 11 10 9 8 10 10 10 11 12 13 12 10 11 11 10 10
2 1 4 6 3 2 6 5 1 2 2 2 4 5 6 6 6 6 8 8 8 9 8 6 6 6 5 5 4 5 5 6 7 8 9 10 10 10 9 11 13 11 11 12 16 16 16 15 15 14 14 14 14 15 15 14 14 14 15 12 11 11 11 11 12 12 12 12 11 10 10 10 9 9 9 9 5 2 4 12 10 11 11 10 11 11 9
3 3 2 3 2 4 5 5 1 3 3 3 6 6 6 7 7 6 8 7 7 7 8 7 5 5 5 4 4 5 6 6 7 8 8 8 9 9 10 10 11 12 13 15 16 16 15 15 14 12 10 11 11 11 11 11 11 11 12 12 11 11 11 10 12 11 11 11 10 10 10 10 11 11 11 12 9 6 6 8 13 12 12 9 11 11 8
3 5 4 3 2 3 7 9 3 3 3 4 4 6 6 6 7 6 7 7 7 7 7 6 6 5 5 6 6 6 7 7 6 7 8 8 8 9 9 11 12 13 14 14 13 13 13 14 13 11 12 11 12 12 11 12 13 13 12 11 11 11 10 10 11 11 10 10 10 10 11 11 11 11 12 12 13 11 4 6 4 7 8 10 11 12 12
3 2 0 1 1 3 6 7 6 3 3 3 4 5 5 6 6 6 7 7 7 7 7 7 7 7 5 6 6 7 8 8 8 8 7 8 8 8 9 11 12 12 12 12 11 11 12 15 12 11 12 12 12 12 12 13 13 14 14 12 12 11 10 11 12 11 10 10 10 11 11 11 11 11 11 12 12 11 10 7 5 1 3 5 7 6 7
2 3 1 4 4 5 4 3 4 4 4 4 6 6 5 5 4 5 6 6 7 6 6 6 6 5 5 6 6 7 7 8 6 4 7 7 7 7 8 9 10 11 11 11 10 11 12 13 13 12 11 12 12 12 12 13 13 13 12 11 10 10 15 14 11 11 10 10 11 11 11 12 12 12 11 11 10 10 11 11 11 10 10 8 7 9 8
5 6 8 2 3 4 6 10 13 12 4 4 5 5 4 2 2 2 3 3 4 4 4 3 3 3 4 3 4 5 5 5 5 5 6 6 6 6 7 9 10 10 10 11 11 12 14 14 13 12 11 12 12 12 13 13 13 13 12 10 9 9 9 10 9 9 9 9 10 11 11 11 11 11 10 10 10 10 10 10 10 10 9 9 9 9 11
3 6 6 6 3 4 7 8 8 3 5 4 3 3 2 2 2 2 3 3 3 2 4 4 3 3 3 3 2 4 4 4 5 5 5 6 6 6 7 8 8 9 9 10 10 11 11 11 12 12 11 12 13 13 13 13 13 13 12 11 10 10 10 10 10 9 9 9 9 9 9 9 9 10 10 10 10 10 10 10 10 9 9 9 9 8 9
5 8 9 7 2 5 6 7 6 6 5 3 3 2 2 1 2 2 2 3 2 3 4 2 2 3 2 3 3 3 3 4 4 5 5 5 6 6 7 8 8 8 9 10 10 11 11 11 12 12 11 12 13 13 13 12 11 13 12 12 11 11 11 12 10 10 9 9 9 9 9 10 10 10 10 10 11 11 10 11 10 10 10 10 9 10 10
8 7 10 6 5 3 4 5 5 5 5 3 3 3 3 2 2 2 2 2 2 2 3 3 3 2 3 3 3 3 3 3 4 4 5 5 6 6 7 8 8 8 8 9 9 10 11 11 11 10 11 12 12 13 13 11 11 11 11 10 9 12 14 15 12 10 10 9 9 10 9 9 10 11 11 11 10 10 10 9 10 10 10 10 9 9 9
9 5 5 5 3 3 2 2 3 3 3 3 3 4 4 4 4 4 3 2 3 3 2 3 4 4 3 3 3 3 3 3 3 4 4 5 6 6 6 7 6 6 8 9 9 10 10 10 10 10 12 12 13 13 12 11 11 11 10 10 10 10 11 15 10 9 9 8 8 9 9 10 9 9 9 10 10 10 11 11 11 11 10 10 10 10 11
6 1 4 5 5 5 5 6 5 6 5 4 4 4 4 4 3 4 4 3 2 1 1 3 3 3 3 3 2 3 3 3 3 3 4 4 5 5 6 6 5 6 7 7 8 9 9 10 9 10 11 12 12 12 12 11 11 10 10 10 9 10 12 12 10 9 8 9 9 10 10 10 9 10 10 10 11 11 11 11 10 10 10 10 9 9 9
10 9 6 8 10 9 9 8 5 4 3 3 4 4 4 3 3 3 3 2 2 2 3 3 3 2 3 3 3 3 3 3 3 3 3 3 4 4 5 4 4 5 5 6 8 7 7 8 9 9 11 11 12 11 11 12 10 9 10 10 9 10 11 10 9 8 9 9 9 10 9 10 10 10 10 10 10 9 9 9 8 8 7 7 7 8 9
6 7 5 5 10 10 6 7 6 6 6 6 5 3 3 3 2 4 3 2 3 3 2 2 3 3 4 4 4 3 3 4 5 4 4 3 3 3 3 4 4 5 5 5 5 6 6 8 9 9 10 11 11 10 10 11 10 9 10 9 9 10 10 10 11 11 10 10 9 10 10 10 10 9 9 10 10 9 9 8 9 9 9 9 7 7 7
6 8 7 6 5 4 5 6 6 7 6 6 5 5 5 4 3 4 4 4 3 3 3 3 4 5 5 6 6 6 6 5 4 4 4 3 3 3 4 4 4 4 5 4 4 4 7 6 7 9 8 9 10 11 11 11 10 9 9 9 9 10 11 11 11 10 9 9 9 9 9 9 9 9 9 9 9 9 9 9 10 9 9 9 9 10 8
9 9 8 4 4 2 3 2 2 4 4 4 5 5 5 4 4 5 4 4 4 4 5 5 6 7 8 7 6 5 5 5 4 4 3 2 2 3 4 4 4 4 5 5 5 6 6 8 10 9 8 8 8 10 10 11 9 9 9 9 9 9 10 10 10 10 10 9 8 8 9 9 9 9 10 9 10 10 10 10 10 10 10 10 9 10 8
7 7 4 4 3 3 3 3 2 2 4 5 5 4 4 4 5 5 6 6 6 5 5 6 7 6 5 4 5 6 5 4 4 4 3 3 1 2 3 3 4 4 4 4 6 6 4 10 12 9 7 7 7 7 8 9 6 8 8 8 8 8 9 8 7 7 8 9 10 9 9 9 9 9 9 10 10 10 9 9 9 9 8 8 8 9 8
6 4 4 5 5 5 6 5 4 3 3 5 5 5 4 4 5 6 7 7 6 5 5 5 4 4 4 4 4 4 5 4 3 3 3 2 2 1 1 3 4 4 5 5 4 4 9 11 9 8 7 7 9 8 10 9 9 7 7 7 8 8 9 9 9 8 8 8 7 7 8 8 8 8 8 9 9 8 9 9 8 8 7 7 8 8 9
5 5 5 5 6 6 6 6 5 5 4 3 4 5 5 5 6 6 7 7 5 4 4 3 2 3 3 3 3 4 4 3 3 2 2 1 1 1 2 2 2 2 4 4 1 3 8 10 9 7 6 7 8 8 10 12 11 7 7 8 8 7 8 8 10 9 9 9 8 7 8 8 8 8 7 7 7 8 7 8 8 7 7 7 8 9 9
6 6 7 7 7 6 7 6 6 6 5 5 5 5 3 4 6 7 7 7 6 5 4 3 2 3 3 3 3 3 3 2 2 2 1 1 1 1 2 3 4 3 3 1 2 5 9 9 7 6 5 7 7 8 8 11 11 8 7 8 8 9 9 9 9 8 9 9 7 8 7 7 7 7 7 7 7 7 6 7 7 7 7 8 8 8 8
8 8 8 7 6 5 5 6 6 7 7 7 6 5 4 4 5 5 6 6 5 4 4 5 7 6 4 3 2 1 1 1 1 1 1 2 3 2 2 3 3 3 6 4 5 5 5 5 5 4 5 6 7 11 11 11 9 7 7 7 7 8 8 9 9 9 8 8 9 9 8 8 8 8 8 8 7 6 5 6 6 6 7 7 8 8 8
8 7 7 6 6 5 4 4 6 7 7 6 5 5 5 5 6 6 6 5 4 3 2 3 4 2 2 1 1 1 1 0 1 0 0 0 1 2 3 3 3 5 2 0 2 4 6 6 6 4 2 2 8 13 13 10 9 8 8 7 7 8 8 8 8 9 8 9 9 10 10 9 9 9 8 7 7 7 7 7 7 7 8 8 8 8 8
6 6 6 6 6 5 5 6 6 6 6 6 5 5 5 5 5 6 5 2 2 1 2 0 1 2 2 1 2 1 1 1 2 1 2 1 3 3 1 1 3 5 1 1 2 2 4 4 3 8 10 11 14 13 9 8 9 7 7 7 7 7 7 8 8 8 8 8 8 9 9 9 9 8 7 7 6 6 6 6 7 7 7 8 8 7 7
3 4 4 5 6 5 5 6 5 5 6 6 5 4 3 4 4 3 1 1 3 4 1 1 2 2 2 2 2 2 3 2 2 2 2 0 1 4 5 3 2 3 3 4 0 2 2 4 8 10 9 10 12 11 7 7 8 7 6 6 7 7 7 7 8 8 8 8 8 8 8 8 8 8 8 8 8 8 8 8 8 8 8 7 7 6 6
4 3 4 3 3 4 5 5 4 3 6 5 5 5 3 2 3 4 3 4 3 2 3 2 3 3 2 1 0 0 1 1 0 1 2 4 4 5 5 5 4 5 2 4 0 2 5 8 9 8 9 9 10 8 5 6 6 6 6 6 6 6 7 7 7 7 7 7 8 8 8 8 8 8 8 8 8 8 8 9 9 10 8 7 7 7 7
7 7 6 5 5 5 4 3 3 3 3 2 3 4 5 3 2 4 4 4 2 2 3 3 2 1 0 1 3 2 1 1 2 1 0 2 4 4 6 5 7 5 4 1 2 2 5 6 6 7 8 9 10 5 5 5 5 5 6 6 6 6 6 6 7 7 7 7 7 7 7 7 8 8 8 7 7 7 7 8 7 6 6 6 7 7 7
9 9 8 8 8 6 5 5 4 4 5 4 2 3 4 2 2 3 2 3 3 2 2 2 2 2 1 1 0 2 3 4 1 4 2 2 2 2 3 3 4 5 3 5 6 6 8 8 8 7 7 8 7 4 4 4 5 5 5 6 6 6 6 6 6 6 6 6 7 7 7 7 8 7 7 8 7 6 6 7 7 7 7 7 8 7 8
10 10 9 9 9 10 8 7 7 7 6 5 4 3 3 1 3 3 2 2 3 3 3 4 3 3 2 1 2 2 3 3 4 4 3 1 1 2 5 7 6 5 4 1 4 4 6 7 7 7 7 8 6 4 4 4 4 4 5 5 5 5 5 6 6 6 6 6 7 7 7 7 7 7 7 7 6 6 6 7 7 7 6 7 7 7 7
11 10 11 10 10 10 9 8 8 7 7 6 6 5 5 2 2 4 3 2 1 1 1 2 3 3 2 2 2 1 1 1 2 2 2 2 2 2 2 3 4 2 4 1 4 5 7 6 6 5 6 6 5 3 3 3 4 4 4 4 4 5 5 4 4 4 5 5 5 6 6 6 7 7 6 6 7 6 7 8 8 7 6 7 7 7 8
10 11 10 10 9 10 11 10 9 8 8 8 7 7 6 5 5 5 5 7 4 1 1 2 2 1 1 1 1 2 1 1 1 2 1 2 2 3 2 2 4 3 2 1 2 3 6 5 5 6 6 5 4 4 4 4 4 4 4 4 4 4 4 5 5 5 6 5 5 6 6 6 7 7 8 8 8 9 11 11 9 7 6 6 5 5 6
8 8 6 6 9 9 10 12 12 11 10 10 9 8 8 6 5 5 6 10 6 4 4 1 3 4 4 3 2 2 2 1 1 3 1 1 2 3 4 0 2 4 3 3 3 2 3 4 6 6 5 5 4 4 3 2 4 4 4 4 4 4 4 4 5 5 5 6 6 6 6 7 8 8 9 9 10 11 12 12 10 6 7 5 5 5 5
Wind_Direction
236 235 191 182 199 203 196 202 201 207 207 210 215 218 222 219 222 232 205 217 217 229 249 247 244 17 82 76 155 157 174 177 182 178 176 178 179 180 186 186 186 183 176 173 174 172 169 168 170 176 175 164 180 173 171 169 168 169 168 162 151 150 152 165 166 158 155 156 155 151 151 149 146 147 154 151 145 148 152 152 156 178 177 174 168 171 164
234 217 221 213 213 210 209 205 204 204 205 210 216 219 221 227 232 235 240 202 221 221 246 251 275 82 57 77 104 152 179 184 185 186 181 180 183 183 188 188 187 184 178 173 176 171 170 167 165 169 172 176 176 175 173 169 166 162 170 158 152 150 154 163 155 157 153 151 152 151 151 148 143 142 151 144 142 141 144 150 168 183 177 182 176 169 170
222 226 226 220 219 216 219 217 213 211 210 211 211 215 218 225 236 235 240 245 236 226 232 254 218 114 98 221 178 201 198 189 189 192 189 184 186 189 189 190 184 185 184 178 176 174 174 176 173 172 173 172 173 175 173 171 169 165 172 168 158 153 152 152 151 149 148 150 151 154 152 147 144 147 149 149 147 136 126 136 142 148 166 179 193 180 176
224 193 247 242 217 217 222 217 215 215 211 211 209 214 211 214 218 223 232 234 236 238 245 252 259 269 277 266 236 205 194 193 192 199 194 188 188 190 190 185 182 183 179 178 178 179 176 173 169 170 173 172 170 173 172 172 158 159 161 160 159 157 150 149 149 149 151 153 156 154 151 148 142 141 148 150 134 129 132 135 140 127 107 160 217 199 182
226 141 290 231 192 196 217 223 215 209 210 215 213 218 217 220 221 220 219 231 236 245 244 254 253 255 263 246 236 213 191 193 197 201 200 194 191 188 187 185 190 185 181 178 175 176 178 177 178 177 175 171 172 172 169 163 147 156 155 154 154 154 155 156 153 150 150 155 156 153 150 139 145 161 161 155 150 150 144 135 121 113 149 177 212 199 189
258 345 225 169 175 197 216 214 214 213 212 206 213 212 215 219 216 229 234 244 243 241 242 245 251 253 261 266 240 214 198 192 199 202 202 200 193 190 187 187 190 187 176 177 176 175 175 175 173 172 173 175 179 174 162 154 159 157 146 144 149 153 157 159 154 152 154 154 153 152 148 149 156 154 158 153 145 141 133 133 140 156 179 190 196 192 188
267 58 166 181 196 205 81 35 200 207 212 211 215 221 218 219 220 229 237 244 246 246 247 248 257 276 295 306 255 217 207 202 195 194 198 196 190 188 186 186 188 186 178 173 170 172 172 169 167 171 180 177 170 172 176 168 165 157 154 151 156 155 156 158 158 158 158 157 155 155 156 157 160 158 155 140 141 140 143 152 161 171 184 187 187 187 184
281 242 201 198 198 83 86 70 43 302 214 213 213 222 222 218 220 222 230 236 240 242 245 252 266 289 307 298 243 220 205 199 194 194 196 191 189 189 186 186 185 186 181 177 173 167 169 171 173 171 169 163 167 173 177 172 163 164 160 161 162 161 162 163 164 165 160 155 155 156 155 157 160 160 155 154 152 153 156 163 174 183 181 184 180 180 180
305 300 205 221 98 147 144 156 160 179 193 198 208 219 223 220 218 217 224 232 237 242 250 262 280 45 307 280 261 204 202 197 201 201 193 186 185 189 186 184 185 184 180 170 170 171 170 173 170 173 174 163 159 164 167 159 157 160 163 164 165 163 164 164 167 166 163 158 159 157 155 157 160 162 162 161 162 163 166 169 176 179 175 175 174 177 176
297 301 219 210 191 197 120 46 50 175 359 275 214 214 231 216 216 216 224 233 234 240 246 246 120 90 282 268 263 192 187 191 195 197 192 181 179 181 181 179 180 178 170 172 168 169 169 172 174 176 175 168 161 160 160 156 156 165 170 171 161 153 152 155 157 159 159 157 154 155 158 165 167 167 166 163 162 168 172 172 174 174 168 168 173 177 180
296 281 258 223 180 82 356 38 36 66 336 317 199 210 235 220 216 212 220 227 233 238 236 206 145 238 260 254 266 123 182 179 181 179 185 175 172 176 176 177 178 177 174 171 168 169 170 173 177 177 175 167 161 163 163 165 166 169 176 181 183 174 165 160 154 153 159 161 160 160 164 163 158 154 156 157 159 166 172 169 166 163 166 164 169 173 177
265 292 268 166 68 63 26 20 23 1 341 277 188 195 224 197 199 207 212 222 228 230 220 187 208 230 244 250 78 345 180 172 164 170 173 170 171 171 170 172 175 173 170 164 169 179 178 180 177 175 171 163 162 161 163 162 169 173 178 187 189 178 169 168 167 164 163 156 148 146 139 132 137 145 151 152 158 164 162 169 162 155 169 166 167 170 170
302 289 271 302 123 83 37 18 12 53 154 223 195 198 86 42 68 154 201 216 221 216 202 200 230 222 294 360 3 313 197 161 156 161 173 172 171 167 167 167 166 169 172 175 176 175 177 174 173 176 166 162 160 160 162 168 176 180 185 183 181 175 163 164 166 163 148 135 136 142 135 140 140 137 145 150 155 161 160 163 154 160 169 169 167 167 173
281 323 296 59 356 40 357 54 30 131 168 176 196 45 334 342 47 62 74 184 182 197 204 200 223 152 82 22 41 185 185 167 151 162 169 172 169 164 165 158 168 167 172 174 179 182 183 181 179 177 170 165 166 164 168 172 172 171 171 162 157 150 150 151 146 135 133 118 123 126 135 140 140 150 157 152 156 160 153 150 161 164 163 161 166 166 170
282 270 338 26 138 80 22 336 139 122 306 21 352 319 54 11 43 46 102 182 183 195 199 204 196 129 102 59 58 140 165 161 157 161 171 174 171 164 162 163 171 166 168 172 176 177 176 178 178 173 165 162 164 164 171 173 168 164 159 154 153 151 146 143 136 132 145 146 149 150 154 157 157 161 162 159 158 160 156 160 162 160 158 157 168 169 169
306 227 167 52 13 65 18 328 56 28 17 343 344 326 55 38 41 31 49 102 121 192 203 180 172 175 133 114 111 130 157 155 155 158 170 173 169 165 167 170 169 171 168 174 174 176 174 178 181 169 164 161 161 166 175 167 158 157 155 156 158 154 153 152 150 151 150 152 155 156 155 160 163 159 163 162 162 164 165 168 163 158 156 170 179 174 174
250 17 332 319 351 352 339 310 334 321 330 332 329 350 33 32 38 10 39 49 67 100 23 182 189 199 218 216 163 174 171 173 170 167 169 168 170 174 174 176 172 176 171 171 173 173 174 180 181 171 168 161 155 167 167 158 156 157 157 160 159 157 156 154 153 153 152 157 157 160 168 170 168 166 164 165 169 174 173 173 167 162 165 180 179 177 177
266 265 254 308 301 311 344 322 281 289 324 319 355 28 47 47 44 35 38 35 40 42 9 302 218 238 225 207 170 147 156 166 169 181 171 165 162 174 175 176 177 183 169 171 172 172 177 183 183 171 168 163 164 169 155 167 169 157 160 161 160 155 151 159 160 150 152 160 165 167 167 172 169 167 167 171 177 176 176 171 168 173 179 178 180 177 180
307 198 139 189 236 217 250 275 271 262 254 293 344 45 58 62 61 66 56 44 38 25 9 333 332 160 204 176 150 136 151 158 151 160 182 178 173 173 178 177 173 182 173 172 174 172 178 181 182 170 166 173 170 156 157 158 152 154 163 162 157 154 153 153 152 154 157 166 164 161 164 170 171 171 173 178 177 171 173 171 175 180 179 178 181 181 183
254 328 307 260 105 247 250 242 192 195 175 16 339 25 46 65 66 73 86 83 64 24 33 16 18 49 14 166 156 161 153 150 145 145 157 184 181 177 181 164 175 183 175 174 171 172 178 177 176 167 166 165 157 153 155 154 152 153 158 160 158 157 151 146 149 159 166 159 161 166 173 177 177 179 179 183 182 180 178 178 179 181 182 183 185 185 183
230 273 260 236 165 169 169 180 215 112 84 72 40 327 218 138 103 92 75 70 74 63 47 19 52 93 93 158 165 154 139 141 138 139 152 170 187 182 175 165 183 180 179 175 172 171 174 178 177 164 161 155 155 152 157 159 160 161 159 155 154 154 155 155 155 155 159 160 170 168 172 178 183 182 180 182 181 177 182 183 188 186 186 184 187 186 190
213 238 219 185 184 182 178 168 139 124 124 156 152 146 117 86 83 87 98 92 74 68 51 36 46 68 89 98 152 140 130 126 123 131 150 174 176 177 168 164 187 170 172 167 163 171 176 181 177 165 161 160 158 157 159 164 164 163 158 156 155 154 157 157 156 159 159 162 168 170 170 173 173 175 175 177 179 181 185 195 190 191 183 188 185 188 192
208 182 233 195 255 132 164 118 15 118 141 139 107 93 85 85 82 68 68 85 94 79 65 45 56 55 54 58 76 105 115 121 135 145 161 164 166 168 164 172 186 167 165 153 166 179 184 180 176 170 170 168 163 160 156 159 161 158 154 150 151 155 156 161 163 167 165 166 170 172 173 172 171 172 173 189 193 211 231 182 178 180 184 180 181 204 203
257 313 293 232 290 233 140 102 105 95 58 63 86 69 65 58 51 56 73 67 59 76 95 86 70 82 84 72 74 81 87 109 129 140 147 152 159 163 168 179 167 168 168 170 181 185 183 179 174 163 147 143 142 147 148 152 154 146 148 150 157 159 162 163 161 166 168 168 169 171 175 178 179 181 183 185 187 100 48 176 170 174 170 160 170 190 220
315 343 311 267 279 157 110 108 69 343 43 6 52 57 31 39 49 41 53 59 56 45 53 79 87 74 88 93 96 109 116 118 121 125 134 143 146 161 168 173 173 173 178 183 184 184 180 176 167 146 145 151 156 154 155 157 157 153 158 161 161 158 156 153 162 163 160 161 167 173 174 179 182 184 184 188 190 185 103 64 155 175 182 180 179 188 193
310 350 55 240 197 108 112 125 137 143 94 86 97 78 61 47 22 46 50 43 43 39 37 35 49 47 41 62 79 96 106 107 117 130 134 141 154 163 170 172 172 175 177 183 182 175 174 175 164 156 155 159 162 162 162 164 163 162 164 165 162 162 159 151 158 165 169 166 171 175 177 179 182 183 189 191 194 183 174 169 158 167 215 224 217 197 205
96 56 118 160 145 122 61 344 118 97 108 96 95 84 67 63 37 40 52 54 50 45 47 48 50 52 53 58 58 55 87 115 135 133 126 139 150 159 163 166 172 171 174 173 169 171 172 167 169 175 165 161 161 160 161 162 162 159 162 161 166 166 157 159 163 167 169 173 176 181 182 184 185 188 189 190 190 183 183 185 190 192 196 201 197 201 204
105 57 10 12 183 150 81 48 15 337 345 78 90 90 85 91 106 110 88 78 74 72 78 59 63 73 84 68 80 101 115 128 118 121 131 134 139 143 154 160 165 167 170 169 170 167 173 174 175 174 167 164 163 164 164 163 163 163 160 155 152 144 148 160 158 162 169 176 182 182 182 184 184 184 184 184 186 189 185 184 187 189 194 199 198 184 204
44 26 13 15 335 125 117 115 139 180 309 335 48 65 98 111 96 88 72 57 47 67 65 71 72 54 68 87 80 93 102 104 116 125 127 131 136 144 151 159 160 163 166 167 165 160 163 166 167 165 160 162 164 166 166 165 164 166 166 163 156 152 158 164 168 170 175 178 179 177 175 178 181 185 187 186 187 189 186 187 187 191 194 193 187 165 179
43 13 360 18 35 144 143 155 162 175 167 155 116 108 93 107 118 87 71 69 49 50 43 37 63 67 57 90 78 69 87 100 107 118 122 139 139 143 148 152 154 161 165 174 165 166 169 169 170 167 161 164 163 164 163 164 166 168 166 166 163 159 165 169 170 172 175 179 174 159 169 182 186 185 187 189 191 192 194 192 185 186 191 193 183 176 179
68 28 337 345 350 302 206 151 152 147 140 133 121 109 103 86 79 76 62 53 43 52 34 29 47 80 75 65 77 70 69 88 105 115 124 135 146 150 156 159 165 168 173 173 166 171 172 170 173 166 158 161 161 163 164 166 168 166 166 166 162 159 163 165 170 174 177 174 163 171 178 186 193 193 191 192 187 191 188 187 180 190 194 191 183 187 184
117 166 270 302 308 305 309 186 148 132 128 154 147 107 85 76 67 55 43 29 39 14 15 37 51 50 59 69 78 96 104 103 113 115 124 135 145 155 160 171 166 165 173 169 170 174 171 174 173 157 159 164 165 165 165 168 170 171 171 170 163 154 159 161 171 171 171 165 162 175 181 189 190 189 182 189 191 193 194 190 186 190 194 197 193 195 190
122 183 274 257 263 251 230 228 193 168 178 165 120 106 99 81 72 59 41 12 357 23 37 54 55 63 72 86 95 99 104 104 104 120 128 135 135 147 158 171 158 170 163 164 167 172 169 167 158 152 162 161 164 165 167 169 171 173 172 170 168 160 155 168 173 166 169 173 181 187 184 187 188 191 196 193 198 197 198 198 194 188 193 195 196 193 194
170 191 194 208 208 208 206 194 186 161 144 133 135 135 124 108 86 65 47 17 6 26 51 59 65 72 83 88 95 100 122 148 141 125 121 123 125 137 148 153 151 153 141 150 160 164 163 157 146 153 158 161 164 165 169 171 173 174 172 172 163 151 157 164 159 169 174 185 186 184 187 187 196 197 192 189 193 195 193 188 171 166 167 181 189 196 156
202 219 229 219 215 237 218 182 175 173 176 168 160 153 125 116 96 67 27 14 42 52 58 65 78 83 88 87 86 79 63 56 64 91 102 107 121 132 137 147 151 153 150 159 169 163 155 150 154 155 158 162 162 163 168 171 173 174 172 169 158 154 158 163 172 181 187 185 187 184 188 188 194 192 190 188 190 188 186 189 185 186 187 186 182 178 153
267 253 259 270 232 220 201 186 183 187 185 181 166 156 145 120 109 112 104 83 79 90 93 91 92 93 84 77 71 65 68 72 73 80 99 113 117 139 151 157 158 159 150 146 159 143 155 154 137 145 158 163 167 168 173 171 174 173 167 163 157 157 163 170 177 181 182 179 183 185 190 185 187 189 193 194 194 193 195 193 195 191 198 198 196 194 180
225 246 263 224 177 166 127 125 164 191 189 175 158 149 135 125 102 92 103 113 101 96 101 108 100 89 81 74 72 64 58 55 54 62 82 101 124 147 157 155 160 162 163 163 158 162 169 135 131 144 163 164 173 173 160 159 175 169 166 173 167 166 166 170 177 181 181 181 182 183 184 181 192 192 195 202 200 200 199 196 192 196 200 204 198 196 178
211 231 202 154 141 123 95 75 67 147 148 129 117 111 119 125 126 126 116 112 105 93 80 81 83 84 89 88 79 72 63 47 54 62 63 74 81 131 143 162 166 157 195 146 132 167 150 127 142 163 175 170 165 163 145 161 157 164 173 179 174 172 169 169 166 174 180 185 190 192 189 191 193 195 193 202 204 198 191 189 180 187 191 188 186 186 185
143 139 115 109 104 102 103 102 99 90 149 152 134 121 106 116 126 130 122 110 104 105 101 95 96 88 77 75 74 77 77 76 52 54 62 67 50 335 74 53 46 28 42 76 157 148 120 139 168 176 181 169 171 170 147 155 168 183 172 174 172 177 171 171 175 176 183 182 183 186 186 190 196 199 196 200 202 192 187 189 180 181 187 188 193 197 202
119 120 116 117 108 103 99 93 86 84 74 87 131 131 133 145 146 133 123 114 97 87 91 87 81 74 73 69 78 82 75 62 46 48 49 60 105 147 156 134 109 95 70 33 287 124 126 153 175 184 175 170 171 166 160 166 173 182 173 180 182 175 176 179 180 183 182 183 181 176 184 186 190 197 198 198 200 200 194 182 182 180 187 192 200 202 203
132 129 125 120 114 109 100 93 86 83 89 91 92 102 133 147 140 139 127 115 102 84 67 42 42 53 38 44 50 74 82 76 56 49 34 265 223 236 250 121 115 130 147 117 49 103 143 171 190 181 172 168 174 162 154 164 178 189 186 189 166 174 180 178 184 184 184 181 167 186 193 176 176 185 187 190 197 199 193 180 180 181 190 200 206 203 200
130 129 124 120 111 101 99 106 105 97 88 85 87 98 109 137 151 136 117 116 110 100 83 70 31 17 43 46 62 65 85 84 66 68 4 350 343 327 221 105 99 90 73 98 116 117 146 178 203 210 172 169 154 138 143 163 186 190 192 187 180 183 183 181 183 188 184 179 186 193 189 190 187 190 187 190 189 183 178 176 179 184 192 198 202 202 205
144 137 124 116 111 108 106 103 101 104 102 92 88 89 108 130 132 123 113 113 106 111 105 100 133 161 103 64 31 302 57 107 225 175 206 137 39 358 350 57 83 96 117 263 139 156 167 176 184 196 105 179 131 133 148 171 186 190 192 187 185 188 184 184 188 192 190 190 193 198 199 198 199 196 190 185 182 181 182 182 187 192 198 203 207 205 207
149 139 132 127 118 107 115 117 121 117 104 98 102 104 107 118 140 140 132 139 174 225 292 253 135 73 57 31 298 272 155 199 233 202 248 159 166 151 162 29 82 87 340 232 167 173 154 169 144 86 86 100 128 148 170 181 188 193 188 184 181 187 186 186 188 194 197 196 196 197 198 194 196 191 183 177 179 184 187 188 194 199 204 203 200 198 202
155 143 140 129 129 139 144 144 140 108 98 115 114 111 121 132 137 151 183 245 50 61 86 124 99 83 76 52 9 10 358 356 332 323 270 251 228 107 110 113 124 144 136 297 231 150 150 98 92 105 114 128 149 171 186 180 188 192 187 184 182 189 187 189 190 195 198 195 194 193 191 190 195 192 187 182 180 185 187 193 199 206 209 211 203 200 201
94 79 73 83 94 55 40 47 66 124 131 120 111 115 101 127 152 149 138 135 109 85 73 81 66 74 84 102 111 275 250 276 342 325 0 358 23 47 45 7 63 68 97 262 152 118 79 85 111 116 126 145 160 197 188 180 185 188 187 187 186 188 189 189 192 197 194 197 197 200 196 197 196 193 188 186 186 201 207 210 216 217 215 212 209 209 210
73 72 64 66 70 61 63 74 94 110 139 155 123 107 93 76 106 165 165 156 134 106 99 108 125 100 51 307 321 311 285 196 146 121 114 113 117 101 98 88 96 112 193 235 79 82 98 124 121 129 139 157 191 199 182 181 186 190 185 193 186 190 192 193 192 197 196 199 198 196 196 195 192 184 175 180 185 194 202 201 212 216 212 213 215 210 213
58 60 56 53 55 56 65 70 77 80 72 54 18 77 83 82 77 62 106 171 169 164 174 169 102 103 116 131 134 0 351 340 57 111 104 111 87 124 145 127 111 118 117 106 84 70 87 110 126 143 151 168 208 212 185 184 186 187 189 184 195 187 193 189 193 193 195 188 186 194 193 193 197 193 187 193 194 188 197 207 215 222 222 216 217 215 212
50 55 55 54 50 48 50 51 52 50 38 15 4 35 27 109 130 128 120 152 169 168 140 130 117 97 111 67 341 351 54 13 7 46 68 74 93 109 101 109 117 164 223 164 125 122 119 132 142 148 161 198 211 201 195 180 189 189 193 190 194 193 194 192 193 191 190 182 184 192 192 192 192 190 185 186 191 193 194 208 216 222 218 216 213 215 218
39 45 46 41 43 41 39 43 41 32 22 14 13 7 339 279 120 60 42 41 74 225 234 152 151 141 139 145 163 134 82 29 36 48 65 89 97 91 106 118 109 89 332 352 121 111 116 132 139 150 183 203 214 212 195 194 180 195 195 189 202 200 192 189 168 181 190 183 184 185 188 191 189 183 183 187 193 201 205 214 222 216 200 215 220 217 217
42 40 38 36 42 45 44 43 38 28 26 20 16 10 9 43 59 47 34 355 326 21 69 105 87 72 115 105 115 106 111 173 85 357 303 117 115 81 55 100 127 143 173 235 183 151 149 179 172 170 201 224 214 209 204 198 204 180 203 203 196 217 167 176 200 187 201 195 190 189 195 194 192 192 195 206 207 212 219 218 218 217 209 216 217 221 225
48 55 49 38 43 35 42 41 33 28 26 22 17 17 15 17 42 47 45 12 3 20 355 328 89 55 24 34 36 72 79 21 218 165 168 159 158 165 136 248 177 145 189 213 202 192 186 147 139 169 208 217 223 209 173 169 224 209 197 208 208 210 205 195 197 201 192 191 205 202 196 206 207 204 211 218 221 221 218 213 214 222 222 219 217 217 223